Miscellaneous Local Product
Issued by NWS North Platte, NE

Home | Current Version | Previous Version | Text Only | Print | Product List | Glossary On
Versions: 1 2 3 4 5 6 7 8 9 10 11 12 13 14 15 16 17 18 19 20 21 22 23 24 25 26 27 28 29 30 31 32 33 34 35 36 37 38 39 40 41 42 43 44 45 46 47 48 49 50
000
AXUS43 KLBF 232010
MISLBF


WESTERN AND NORTH CENTRAL NEBRASKA HOURLY WEATHER ROUNDUP
NATIONAL WEATHER SERVICE NORTH PLATTE NE
300 PM CDT WED JUL 23 2014

***STATIONS NOT REPORTING VARIABLES SUCH AS SKY/WEATHER OR
PRESSURE ARE PROVIDED BY THE NEBRASKA DEPARTMENT OF
ROADS...RAWS...AND APRS NETWORKS...AND ARE NOT UNDER
NATIONAL WEATHER SERVICE QUALITY CONTROL***

...OBSERVATIONS IN AND NEAR THE EASTERN PANHANDLE OF NEBRASKA...

CITY           SKY/WX    TMP DP  RH WIND       PRES   REMARKS
PINE RIDGE     SUNNY     87  65  47 VRB7      30.19F
CHADRON        SUNNY     92  54  27 SE20G29   30.17F HX  90
ALLIANCE       SUNNY     92  55  28 S21G29    30.23F HX  90
SIDNEY         SUNNY     89  63  41 S20G29    30.28F HX  90
WHITECLAY        N/A     89  59  36 S10         N/A
RUSHVILLE        N/A     97  49  19 S21         N/A  HX  94
GORDON           N/A     92  67  43 E8          N/A  HX  96
CRESCENT LAKE    N/A     90  59  35 S12G20      N/A
LISCO            N/A     92  59  33 SE23        N/A  HX  91
BIG SPRINGS      N/A     84  66  54 SW7         N/A
$$

...OBSERVATIONS IN NORTH CENTRAL NEBRASKA...

CITY           SKY/WX    TMP DP  RH WIND       PRES   REMARKS
VALENTINE      SUNNY     87  59  38 SE14      30.23S
THEDFORD       SUNNY     82  60  47 SE13G18   30.25F
AINSWORTH      SUNNY     82  55  39 SE15      30.24F
O`NEILL        SUNNY     82  48  30 E10       30.25F
ORD            SUNNY     81  57  43 SE12      30.23F
BROKEN BOW     SUNNY     80  57  45 SE12G20   30.23F
BROWNLEE         N/A     86  56  35 SE13        N/A
SPRINGVIEW       N/A     82  60  46 S3G15       N/A
DUNNING          N/A     81  59  47 S12         N/A
ROSE             N/A     85  62  45 E9          N/A
NEWPORT          N/A     82  59  45 E14         N/A
SARGENT          N/A     81  59  47 SE3         N/A
COMSTOCK         N/A     84  67  55 SE7         N/A
CHAMBERS         N/A     84  58  40 E3          N/A
$$

...OBSERVATIONS IN SOUTHWEST NEBRASKA AND FAR NORTHEAST COLORADO...

CITY           SKY/WX    TMP DP  RH WIND       PRES   REMARKS
WRAY             N/A     94  57  29 S18G29    30.25F HX  92
HOLYOKE        FAIR      88  61  40 S15G23    30.25F
IMPERIAL       SUNNY     87  61  41 SW8       30.21F
OGALLALA       SUNNY     90  60  36 S6        30.21F
NORTH PLATTE   SUNNY     79  65  62 E16       30.22F
MCCOOK         CLOUDY    82  65  56 E6        30.19F
LEXINGTON      PTSUNNY   78  64  60 E13       30.21F
PAXTON           N/A     84  67  56 S8          N/A
SUTHERLAND       N/A     84  73  70 E10         N/A  HX  91
BRADY            N/A     76  64  65 MISG        N/A
GOTHENBURG       N/A     72  60  65 E14         N/A
CALLAWAY         N/A     79  68  69 SE14        N/A
$$

...NORTH PLATTE AREA...

CITY           SKY/WX    TMP DP  RH WIND       PRES   REMARKS
AIRPORT        SUNNY     79  65  62 E16       30.22F
$$

...SOME WEATHER OBSERVATIONS FROM AROUND THE REGION...

CITY           SKY/WX    TMP DP  RH WIND       PRES   REMARKS
DENVER         MOSUNNY   88  59  37 NW8G16    30.29F
LARAMIE        SUNNY     87  40  19 SE8       30.38F
CHEYENNE       SUNNY     80  61  52 S13G30    30.36F
SCOTTSBLUFF    SUNNY     90  65  43 S17       30.21F HX  92
RAPID CITY     SUNNY     81  63  54 SE17      30.19F
PIERRE         SUNNY     86  54  33 SE20G29   30.19F
WINNER         FAIR      86  52  30 SE12G17   30.22F
SIOUX FALLS    MOSUNNY   80  58  46 NE9       30.24F
OMAHA          MOSUNNY   84  58  40 NE8       30.20F
GRAND ISLAND   MOSUNNY   81  58  45 SE9       30.23F
KANSAS CITY    PTSUNNY   85  66  53 NE12      30.14F
WICHITA        PTSUNNY   84  67  56 N7        30.17S
HAYS           CLOUDY    84  63  48 SE6       30.19F
LIBERAL        SUNNY     97  57  26 SE5       30.23F HX  95
GOODLAND       SUNNY     87  60  40 SE16G22   30.28F
$$



USA.gov is the U.S. government's official web portal to all federal, state and local government web resources and services.